AVA225 SAZS-SABE

Flight info

Callsign AVA225
Flight time 1h 41m
Altitude FL350
Route LIMAY2C LIMAY UW26 EGUNO UZ109 ISMIL UT655 ASADA ASADA8Q
Aircraft A320/M-SDE3FGHIRWY/LB1

Departure

Time 2026-05-05 21:14
Airport Teniente Luis Candelaria International Airport (SAZS)

Arrival

Time 2026-05-05 22:56
Airport Aeroparque Jorge Newbery (SABE)
Time Latitude Longitude Altitude Speed Heading
2026-05-05 20:56 -41.14697 -71.16155 2749 ft 0 kts 58°
2026-05-05 21:03 -41.14705 -71.16172 2750 ft 3 kts 58°
2026-05-05 21:03 -41.14715 -71.16195 2749 ft 3 kts 58°
2026-05-05 21:03 -41.14726 -71.16218 2749 ft 3 kts 58°
2026-05-05 21:03 -41.14732 -71.16239 2749 ft 0 kts 117°
2026-05-05 21:04 -41.14733 -71.16235 2749 ft 3 kts 110°
2026-05-05 21:04 -41.14746 -71.16217 2750 ft 3 kts 148°
2026-05-05 21:04 -41.14749 -71.16215 2749 ft 0 kts 157°
2026-05-05 21:08 -41.14751 -71.16215 2749 ft 1 kts 158°
2026-05-05 21:08 -41.14762 -71.16209 2750 ft 3 kts 158°
2026-05-05 21:09 -41.14784 -71.16196 2750 ft 4 kts 154°
2026-05-05 21:09 -41.14808 -71.16160 2752 ft 6 kts 124°
2026-05-05 21:09 -41.14832 -71.16102 2749 ft 8 kts 116°
2026-05-05 21:09 -41.14859 -71.16027 2749 ft 10 kts 116°
2026-05-05 21:10 -41.14891 -71.15937 2749 ft 12 kts 115°
2026-05-05 21:10 -41.14932 -71.15820 2749 ft 16 kts 115°
2026-05-05 21:10 -41.14984 -71.15670 2749 ft 20 kts 115°
2026-05-05 21:10 -41.15043 -71.15502 2749 ft 20 kts 114°
2026-05-05 21:11 -41.15100 -71.15342 2749 ft 19 kts 115°
2026-05-05 21:11 -41.15156 -71.15187 2749 ft 18 kts 114°
2026-05-05 21:11 -41.15206 -71.15033 2749 ft 18 kts 114°
2026-05-05 21:11 -41.15258 -71.14886 2749 ft 17 kts 115°
2026-05-05 21:12 -41.15309 -71.14741 2749 ft 17 kts 115°
2026-05-05 21:12 -41.15359 -71.14599 2749 ft 17 kts 115°
2026-05-05 21:12 -41.15397 -71.14496 2749 ft 10 kts 121°
2026-05-05 21:12 -41.15438 -71.14472 2749 ft 0 kts 188°
2026-05-05 21:13 -41.15461 -71.14481 2749 ft 7 kts 198°
2026-05-05 21:13 -41.15520 -71.14520 2749 ft 12 kts 232°
2026-05-05 21:13 -41.15499 -71.14657 2750 ft 31 kts 294°
2026-05-05 21:14 -41.15304 -71.15218 2751 ft 104 kts 295°
2026-05-05 21:14 -41.14917 -71.16331 2757 ft 162 kts 294°
2026-05-05 21:14 -41.14446 -71.17826 3187 ft 182 kts 293°
2026-05-05 21:14 -41.13926 -71.19355 4052 ft 183 kts 292°
2026-05-05 21:15 -41.13387 -71.20946 4599 ft 197 kts 293°
2026-05-05 21:15 -41.12798 -71.22682 4818 ft 217 kts 294°
2026-05-05 21:15 -41.12144 -71.24610 5046 ft 242 kts 294°
2026-05-05 21:15 -41.11433 -71.26693 5654 ft 252 kts 295°
2026-05-05 21:16 -41.10708 -71.28818 6425 ft 255 kts 295°
2026-05-05 21:16 -41.09974 -71.30970 7264 ft 258 kts 296°
2026-05-05 21:16 -41.09236 -71.33135 8126 ft 259 kts 295°
2026-05-05 21:16 -41.08279 -71.35205 8632 ft 272 kts 316°
2026-05-05 21:17 -41.06683 -71.36569 9289 ft 279 kts 341°
2026-05-05 21:17 -41.04753 -71.36817 10056 ft 285 kts
2026-05-05 21:17 -41.02885 -71.35829 10586 ft 307 kts 33°
2026-05-05 21:17 -41.01421 -71.33590 10804 ft 340 kts 54°
2026-05-05 21:18 -41.00227 -71.30758 10975 ft 366 kts 59°
2026-05-05 21:18 -40.99102 -71.27653 11274 ft 382 kts 62°
2026-05-05 21:18 -40.98005 -71.24423 11821 ft 388 kts 62°
2026-05-05 21:18 -40.96892 -71.21146 12320 ft 395 kts 61°
2026-05-05 21:19 -40.95729 -71.17834 12907 ft 400 kts 60°
2026-05-05 21:19 -40.94518 -71.14503 13534 ft 405 kts 59°
2026-05-05 21:19 -40.93336 -71.11336 14112 ft 409 kts 58°
2026-05-05 21:19 -40.92054 -71.07959 14689 ft 414 kts 58°
2026-05-05 21:20 -40.90755 -71.04550 15245 ft 419 kts 58°
2026-05-05 21:20 -40.89442 -71.01098 15755 ft 424 kts 58°
2026-05-05 21:20 -40.88121 -70.97608 16285 ft 428 kts 58°
2026-05-05 21:20 -40.86791 -70.94085 16773 ft 431 kts 58°
2026-05-05 21:21 -40.85450 -70.90530 17259 ft 435 kts 58°
2026-05-05 21:21 -40.84096 -70.86946 17700 ft 438 kts 58°
2026-05-05 21:21 -40.82729 -70.83335 18160 ft 443 kts 58°
2026-05-05 21:21 -40.81345 -70.79691 18628 ft 447 kts 58°
2026-05-05 21:22 -40.79950 -70.76025 19102 ft 450 kts 58°
2026-05-05 21:22 -40.78542 -70.72330 19564 ft 453 kts 58°
2026-05-05 21:22 -40.77123 -70.68608 20041 ft 456 kts 58°
2026-05-05 21:22 -40.75693 -70.64872 20505 ft 458 kts 56°
2026-05-05 21:23 -40.74011 -70.61342 20930 ft 454 kts 46°
2026-05-05 21:23 -40.71981 -70.58204 21337 ft 451 kts 40°
2026-05-05 21:23 -40.69845 -70.55171 21752 ft 453 kts 40°
2026-05-05 21:23 -40.67701 -70.52125 22167 ft 456 kts 40°
2026-05-05 21:24 -40.65546 -70.49059 22550 ft 459 kts 40°
2026-05-05 21:24 -40.63382 -70.45974 22930 ft 461 kts 40°
2026-05-05 21:24 -40.61207 -70.42869 23283 ft 463 kts 40°
2026-05-05 21:24 -40.59152 -70.39559 23626 ft 473 kts 46°
2026-05-05 21:25 -40.57194 -70.36090 23984 ft 475 kts 46°
2026-05-05 21:25 -40.55218 -70.32608 24321 ft 477 kts 45°
2026-05-05 21:25 -40.53225 -70.29116 24658 ft 480 kts 45°
2026-05-05 21:25 -40.51215 -70.25606 24981 ft 483 kts 45°
2026-05-05 21:26 -40.49190 -70.22082 25286 ft 485 kts 45°
2026-05-05 21:26 -40.47157 -70.18544 25575 ft 488 kts 45°
2026-05-05 21:26 -40.45111 -70.14988 25839 ft 490 kts 45°
2026-05-05 21:26 -40.43058 -70.11414 26137 ft 492 kts 45°
2026-05-05 21:27 -40.41001 -70.07823 26417 ft 494 kts 45°
2026-05-05 21:27 -40.38938 -70.04222 26705 ft 497 kts 45°
2026-05-05 21:27 -40.36861 -70.00604 26992 ft 498 kts 44°
2026-05-05 21:27 -40.34773 -69.96980 27201 ft 500 kts 44°
2026-05-05 21:28 -40.32671 -69.93347 27434 ft 502 kts 44°
2026-05-05 21:28 -40.30557 -69.89702 27675 ft 504 kts 44°
2026-05-05 21:28 -40.28439 -69.86052 27993 ft 504 kts 44°
2026-05-05 21:28 -40.26325 -69.82406 28379 ft 503 kts 44°
2026-05-05 21:29 -40.24220 -69.78773 28721 ft 502 kts 44°
2026-05-05 21:29 -40.22110 -69.75139 29066 ft 502 kts 44°
2026-05-05 21:29 -40.20006 -69.71515 29415 ft 501 kts 44°
2026-05-05 21:29 -40.17904 -69.67898 29772 ft 500 kts 44°
2026-05-05 21:30 -40.15802 -69.64290 30132 ft 499 kts 44°
2026-05-05 21:30 -40.13704 -69.60694 30482 ft 498 kts 43°
2026-05-05 21:30 -40.11607 -69.57112 30833 ft 496 kts 43°
2026-05-05 21:30 -40.09517 -69.53546 31179 ft 495 kts 43°
2026-05-05 21:31 -40.07431 -69.49985 31520 ft 493 kts 43°
2026-05-05 21:31 -40.05355 -69.46439 31874 ft 492 kts 43°
2026-05-05 21:31 -40.03280 -69.42905 32220 ft 490 kts 43°
2026-05-05 21:31 -40.01213 -69.39387 32539 ft 489 kts 43°
2026-05-05 21:32 -39.99146 -69.35871 32850 ft 489 kts 43°
2026-05-05 21:32 -39.97086 -69.32370 33177 ft 487 kts 43°
2026-05-05 21:32 -39.95030 -69.28879 33477 ft 486 kts 43°
2026-05-05 21:32 -39.92976 -69.25389 33785 ft 485 kts 42°
2026-05-05 21:33 -39.90930 -69.21919 34118 ft 483 kts 42°
2026-05-05 21:33 -39.88885 -69.18457 34416 ft 483 kts 42°
2026-05-05 21:33 -39.86839 -69.15006 34617 ft 484 kts 42°
2026-05-05 21:33 -39.85510 -69.12770 34758 ft 484 kts 42°
2026-05-05 21:34 -39.83444 -69.09305 34865 ft 488 kts 42°
2026-05-05 21:34 -39.81354 -69.05810 34884 ft 493 kts 42°
2026-05-05 21:34 -39.77185 -68.98811 34888 ft 489 kts 43°
2026-05-05 21:35 -39.73034 -68.91825 34888 ft 490 kts 42°
2026-05-05 21:35 -39.68846 -68.84819 34887 ft 494 kts 42°
2026-05-05 21:36 -39.64645 -68.77808 34888 ft 493 kts 42°
2026-05-05 21:36 -39.60443 -68.70800 34885 ft 493 kts 42°
2026-05-05 21:37 -39.56235 -68.63798 34885 ft 494 kts 42°
2026-05-05 21:37 -39.52188 -68.57075 34888 ft 494 kts 42°
2026-05-05 21:38 -39.47963 -68.50082 34892 ft 494 kts 42°
2026-05-05 21:38 -39.43731 -68.43100 34899 ft 494 kts 42°
2026-05-05 21:39 -39.39808 -68.36643 34903 ft 494 kts 42°
2026-05-05 21:39 -39.35569 -68.29663 34906 ft 495 kts 42°
2026-05-05 21:40 -39.31326 -68.22691 34907 ft 495 kts 42°
2026-05-05 21:40 -39.27075 -68.15728 34908 ft 494 kts 42°
2026-05-05 21:41 -39.22820 -68.08787 34907 ft 495 kts 42°
2026-05-05 21:41 -39.18562 -68.01843 34905 ft 494 kts 42°
2026-05-05 21:42 -39.14304 -67.94912 34897 ft 495 kts 42°
2026-05-05 21:42 -39.10033 -67.87981 34890 ft 495 kts 42°
2026-05-05 21:43 -39.05750 -67.81046 34890 ft 496 kts 42°
2026-05-05 21:43 -39.01455 -67.74119 34893 ft 496 kts 42°
2026-05-05 21:44 -38.97554 -67.67830 34897 ft 496 kts 42°
2026-05-05 21:44 -38.93257 -67.60909 34900 ft 497 kts 42°
2026-05-05 21:45 -38.89101 -67.54220 34898 ft 497 kts 43°
2026-05-05 21:45 -38.84798 -67.47301 34897 ft 497 kts 43°
2026-05-05 21:46 -38.80652 -67.40668 34898 ft 497 kts 42°
2026-05-05 21:46 -38.76331 -67.33785 34900 ft 497 kts 42°
2026-05-05 21:47 -38.72006 -67.26901 34903 ft 497 kts 42°
2026-05-05 21:47 -38.67677 -67.20020 34908 ft 497 kts 42°
2026-05-05 21:48 -38.63345 -67.13147 34908 ft 497 kts 42°
2026-05-05 21:48 -38.59012 -67.06277 34910 ft 497 kts 42°
2026-05-05 21:49 -38.54670 -66.99424 34911 ft 497 kts 42°
2026-05-05 21:49 -38.50319 -66.92586 34914 ft 497 kts 42°
2026-05-05 21:50 -38.45971 -66.85755 34918 ft 497 kts 42°
2026-05-05 21:50 -38.41656 -66.78982 34921 ft 497 kts 42°
2026-05-05 21:51 -38.37305 -66.72159 34922 ft 497 kts 42°
2026-05-05 21:51 -38.33145 -66.65098 34913 ft 508 kts 52°
2026-05-05 21:52 -38.28092 -66.53186 34919 ft 511 kts 54°
2026-05-05 21:53 -38.24739 -66.45260 34924 ft 511 kts 54°
2026-05-05 21:53 -38.21370 -66.37335 34929 ft 511 kts 54°
2026-05-05 21:54 -38.17990 -66.29414 34930 ft 511 kts 54°
2026-05-05 21:54 -38.14613 -66.21510 34934 ft 511 kts 54°
2026-05-05 21:55 -38.11230 -66.13604 34933 ft 510 kts 54°
2026-05-05 21:55 -38.07845 -66.05709 34931 ft 510 kts 54°
2026-05-05 21:56 -38.04449 -65.97830 34934 ft 509 kts 54°
2026-05-05 21:56 -38.01052 -65.89968 34930 ft 510 kts 53°
2026-05-05 21:57 -37.98222 -65.83412 34929 ft 510 kts 54°
2026-05-05 21:57 -37.94255 -65.74237 34934 ft 510 kts 53°
2026-05-05 21:58 -37.90839 -65.66379 34934 ft 510 kts 53°
2026-05-05 21:58 -37.87414 -65.58539 34933 ft 510 kts 53°
2026-05-05 21:59 -37.84059 -65.50852 34932 ft 510 kts 54°
2026-05-05 21:59 -37.80642 -65.43015 34946 ft 510 kts 54°
2026-05-05 22:00 -37.77215 -65.35191 34936 ft 509 kts 54°
2026-05-05 22:00 -37.73775 -65.27397 34934 ft 509 kts 53°
2026-05-05 22:01 -37.70330 -65.19601 34937 ft 510 kts 54°
2026-05-05 22:01 -37.66882 -65.11794 34935 ft 510 kts 54°
2026-05-05 22:02 -37.63430 -65.03991 34937 ft 510 kts 54°
2026-05-05 22:02 -37.59963 -64.96193 34931 ft 510 kts 54°
2026-05-05 22:03 -37.56491 -64.88404 34937 ft 510 kts 54°
2026-05-05 22:03 -37.53030 -64.80627 34935 ft 511 kts 54°
2026-05-05 22:04 -37.49556 -64.72846 34930 ft 510 kts 54°
2026-05-05 22:04 -37.46073 -64.65100 34932 ft 510 kts 54°
2026-05-05 22:05 -37.42607 -64.57399 34934 ft 510 kts 54°
2026-05-05 22:05 -37.39128 -64.49667 34934 ft 510 kts 54°
2026-05-05 22:06 -37.35909 -64.42525 34933 ft 510 kts 54°
2026-05-05 22:06 -37.32405 -64.34799 34929 ft 510 kts 54°
2026-05-05 22:07 -37.31344 -64.32652 34975 ft 505 kts 49°
2026-05-05 22:07 -37.27672 -64.25092 34958 ft 511 kts 55°
2026-05-05 22:08 -37.24318 -64.17249 34951 ft 513 kts 56°
2026-05-05 22:08 -37.20922 -64.09428 34951 ft 512 kts 54°
2026-05-05 22:09 -37.17434 -64.01790 34953 ft 510 kts 53°
2026-05-05 22:09 -37.14373 -63.95216 34945 ft 511 kts 54°
2026-05-05 22:10 -37.10813 -63.87526 34937 ft 512 kts 54°
2026-05-05 22:10 -37.07266 -63.79812 34930 ft 512 kts 54°
2026-05-05 22:11 -37.06241 -63.77580 34934 ft 513 kts 54°
2026-05-05 22:11 -37.03241 -63.71519 34947 ft 511 kts 53°
2026-05-05 22:12 -36.99730 -63.63784 34940 ft 513 kts 56°
2026-05-05 22:12 -36.96272 -63.55990 34940 ft 514 kts 55°
2026-05-05 22:13 -36.92805 -63.48435 34934 ft 513 kts 54°
2026-05-05 22:13 -36.89188 -63.40760 34934 ft 513 kts 54°
2026-05-05 22:14 -36.85572 -63.33091 34939 ft 514 kts 54°
2026-05-05 22:14 -36.81974 -63.25393 34935 ft 514 kts 54°
2026-05-05 22:15 -36.78380 -63.17700 34944 ft 514 kts 54°
2026-05-05 22:15 -36.74982 -63.10466 34946 ft 514 kts 54°
2026-05-05 22:16 -36.71852 -63.03817 34950 ft 514 kts 54°
2026-05-05 22:16 -36.68234 -62.96151 34939 ft 514 kts 54°
2026-05-05 22:17 -36.64607 -62.88485 34939 ft 514 kts 54°
2026-05-05 22:17 -36.61636 -62.82215 34932 ft 515 kts 54°
2026-05-05 22:18 -36.58001 -62.74567 34937 ft 515 kts 54°
2026-05-05 22:18 -36.55260 -62.68806 34928 ft 515 kts 54°
2026-05-05 22:19 -36.51628 -62.61202 34930 ft 515 kts 54°
2026-05-05 22:19 -36.47986 -62.53589 34925 ft 516 kts 54°
2026-05-05 22:20 -36.44352 -62.46003 34922 ft 515 kts 54°
2026-05-05 22:20 -36.40690 -62.38374 34921 ft 515 kts 54°
2026-05-05 22:21 -36.37022 -62.30756 34930 ft 516 kts 54°
2026-05-05 22:21 -36.33351 -62.23136 34925 ft 516 kts 55°
2026-05-05 22:22 -36.29670 -62.15523 34923 ft 516 kts 54°
2026-05-05 22:22 -36.25988 -62.07921 34928 ft 515 kts 54°
2026-05-05 22:23 -36.22299 -62.00326 34931 ft 515 kts 55°
2026-05-05 22:23 -36.18608 -61.92745 34931 ft 515 kts 54°
2026-05-05 22:24 -36.14907 -61.85169 34929 ft 516 kts 54°
2026-05-05 22:24 -36.11197 -61.77590 34937 ft 516 kts 54°
2026-05-05 22:25 -36.07480 -61.70017 34938 ft 516 kts 54°
2026-05-05 22:25 -36.03763 -61.62456 34941 ft 516 kts 54°
2026-05-05 22:26 -36.00040 -61.54896 34945 ft 516 kts 54°
2026-05-05 22:26 -35.96305 -61.47335 34952 ft 517 kts 54°
2026-05-05 22:27 -35.93966 -61.42586 34961 ft 517 kts 54°
2026-05-05 22:27 -35.90248 -61.35049 34972 ft 516 kts 54°
2026-05-05 22:28 -35.86522 -61.27531 34976 ft 516 kts 54°
2026-05-05 22:28 -35.82859 -61.20175 34976 ft 516 kts 54°
2026-05-05 22:29 -35.79105 -61.12658 34979 ft 516 kts 54°
2026-05-05 22:29 -35.75367 -61.05179 34985 ft 516 kts 54°
2026-05-05 22:30 -35.71621 -60.97682 34983 ft 515 kts 54°
2026-05-05 22:30 -35.68683 -60.91814 34980 ft 515 kts 54°
2026-05-05 22:31 -35.64925 -60.84351 34975 ft 514 kts 54°
2026-05-05 22:31 -35.61170 -60.76897 34969 ft 514 kts 54°
2026-05-05 22:32 -35.57496 -60.69608 34967 ft 514 kts 54°
2026-05-05 22:32 -35.53730 -60.62164 34970 ft 514 kts 54°
2026-05-05 22:33 -35.49978 -60.54758 34970 ft 514 kts 54°
2026-05-05 22:33 -35.46208 -60.47348 34970 ft 514 kts 54°
2026-05-05 22:34 -35.42438 -60.39927 34969 ft 514 kts 54°
2026-05-05 22:34 -35.38666 -60.32531 34968 ft 514 kts 54°
2026-05-05 22:35 -35.34895 -60.25147 34968 ft 514 kts 54°
2026-05-05 22:35 -35.33162 -60.21903 34974 ft 512 kts 53°
2026-05-05 22:36 -35.29328 -60.14557 34969 ft 514 kts 55°
2026-05-05 22:36 -35.25601 -60.07123 34972 ft 513 kts 55°
2026-05-05 22:37 -35.21850 -59.99716 34972 ft 513 kts 54°
2026-05-05 22:37 -35.18062 -59.92390 34787 ft 513 kts 54°
2026-05-05 22:37 -35.16149 -59.88710 33685 ft 514 kts 54°
2026-05-05 22:38 -35.14230 -59.85018 32169 ft 518 kts 54°
2026-05-05 22:38 -35.12299 -59.81304 30666 ft 519 kts 54°
2026-05-05 22:38 -35.10367 -59.77593 29104 ft 518 kts 54°
2026-05-05 22:38 -35.08449 -59.73917 27381 ft 519 kts 54°
2026-05-05 22:39 -35.07786 -59.72644 26733 ft 519 kts 54°
2026-05-05 22:39 -35.06061 -59.69735 25172 ft 513 kts 50°
2026-05-05 22:39 -35.04019 -59.66133 23362 ft 517 kts 54°
2026-05-05 22:39 -35.02135 -59.62442 21839 ft 510 kts 56°
2026-05-05 22:40 -35.00330 -59.58774 20448 ft 500 kts 56°
2026-05-05 22:40 -34.98539 -59.55201 19107 ft 489 kts 55°
2026-05-05 22:40 -34.96733 -59.51745 17808 ft 481 kts 54°
2026-05-05 22:40 -34.94890 -59.48368 17110 ft 475 kts 53°
2026-05-05 22:41 -34.93047 -59.45073 16440 ft 469 kts 53°
2026-05-05 22:41 -34.91288 -59.41955 15847 ft 462 kts 53°
2026-05-05 22:41 -34.89493 -59.38765 15258 ft 455 kts 53°
2026-05-05 22:41 -34.87730 -59.35611 14663 ft 447 kts 54°
2026-05-05 22:42 -34.86011 -59.32518 14061 ft 442 kts 54°
2026-05-05 22:42 -34.84326 -59.29472 13469 ft 436 kts 54°
2026-05-05 22:42 -34.82653 -59.26434 12838 ft 430 kts 55°
2026-05-05 22:42 -34.81001 -59.23429 12197 ft 425 kts 55°
2026-05-05 22:43 -34.79361 -59.20458 11495 ft 422 kts 55°
2026-05-05 22:43 -34.77739 -59.17527 11056 ft 411 kts 54°
2026-05-05 22:43 -34.76195 -59.14743 10900 ft 383 kts 54°
2026-05-05 22:43 -34.74766 -59.12165 10753 ft 353 kts 54°
2026-05-05 22:44 -34.73447 -59.09784 10617 ft 329 kts 54°
2026-05-05 22:44 -34.72198 -59.07534 10206 ft 316 kts 53°
2026-05-05 22:44 -34.70980 -59.05349 9933 ft 310 kts 54°
2026-05-05 22:44 -34.69789 -59.03226 9810 ft 308 kts 53°
2026-05-05 22:45 -34.68594 -59.01090 9676 ft 302 kts 53°
2026-05-05 22:45 -34.67892 -58.99833 9594 ft 295 kts 53°
2026-05-05 22:45 -34.66760 -58.97806 9478 ft 286 kts 53°
2026-05-05 22:45 -34.65730 -58.95955 9353 ft 277 kts 53°
2026-05-05 22:46 -34.64661 -58.94038 9046 ft 275 kts 52°
2026-05-05 22:46 -34.63585 -58.92111 8601 ft 278 kts 52°
2026-05-05 22:46 -34.62496 -58.90172 8135 ft 281 kts 52°
2026-05-05 22:46 -34.62279 -58.89787 8040 ft 281 kts 52°
2026-05-05 22:47 -34.61452 -58.88308 7697 ft 283 kts 53°
2026-05-05 22:47 -34.60340 -58.86325 7211 ft 286 kts 53°
2026-05-05 22:47 -34.59221 -58.84332 6719 ft 288 kts 53°
2026-05-05 22:47 -34.58095 -58.82321 6239 ft 290 kts 53°
2026-05-05 22:48 -34.56964 -58.80303 5753 ft 292 kts 53°
2026-05-05 22:48 -34.56480 -58.79439 5548 ft 292 kts 53°
2026-05-05 22:48 -34.55602 -58.77844 5185 ft 293 kts 54°
2026-05-05 22:48 -34.54509 -58.75787 4669 ft 294 kts 56°
2026-05-05 22:49 -34.50838 -58.68625 3535 ft 230 kts 56°
2026-05-05 22:50 -34.49995 -58.67054 3460 ft 217 kts 56°
2026-05-05 22:50 -34.49189 -58.65557 3371 ft 209 kts 56°
2026-05-05 22:50 -34.48408 -58.64103 3276 ft 205 kts 56°
2026-05-05 22:50 -34.47641 -58.62665 3188 ft 202 kts 56°
2026-05-05 22:51 -34.46944 -58.61198 3101 ft 201 kts 68°
2026-05-05 22:51 -34.46673 -58.59548 3013 ft 200 kts 89°
2026-05-05 22:51 -34.46897 -58.57957 2937 ft 188 kts 109°
2026-05-05 22:51 -34.47521 -58.56597 2738 ft 183 kts 123°
2026-05-05 22:52 -34.48137 -58.55499 2525 ft 180 kts 123°
2026-05-05 22:52 -34.48818 -58.54284 2317 ft 171 kts 122°
2026-05-05 22:52 -34.49092 -58.53794 2216 ft 167 kts 123°
2026-05-05 22:52 -34.49585 -58.52916 2065 ft 159 kts 123°
2026-05-05 22:53 -34.50183 -58.51848 1850 ft 152 kts 123°
2026-05-05 22:53 -34.50752 -58.50830 1659 ft 148 kts 123°
2026-05-05 22:53 -34.51324 -58.49807 1461 ft 146 kts 123°
2026-05-05 22:53 -34.51887 -58.48799 1273 ft 143 kts 123°
2026-05-05 22:54 -34.52442 -58.47808 1083 ft 142 kts 123°
2026-05-05 22:54 -34.52993 -58.46824 897 ft 141 kts 123°
2026-05-05 22:54 -34.53540 -58.45844 712 ft 141 kts 123°
2026-05-05 22:54 -34.54088 -58.44864 524 ft 141 kts 123°
2026-05-05 22:55 -34.54638 -58.43881 334 ft 141 kts 123°
2026-05-05 22:55 -34.55186 -58.42901 172 ft 141 kts 124°
2026-05-05 22:55 -34.55716 -58.41945 29 ft 121 kts 124°
2026-05-05 22:55 -34.56081 -58.41282 26 ft 58 kts 124°
2026-05-05 22:56 -34.56183 -58.41104 28 ft 15 kts 116°
2026-05-05 22:56 -34.56177 -58.41020 27 ft 2 kts 65°
2026-05-05 22:56 -34.56172 -58.41008 27 ft 2 kts 62°
2026-05-05 22:56 -34.56166 -58.40997 27 ft 3 kts 54°
2026-05-05 22:57 -34.56162 -58.40992 27 ft 5 kts 47°
2026-05-05 22:57 -34.56114 -58.40997 27 ft 11 kts 320°
2026-05-05 22:57 -34.56060 -58.41076 27 ft 16 kts 307°
2026-05-05 22:57 -34.56015 -58.41151 27 ft 9 kts 307°
2026-05-05 22:58 -34.55968 -58.41227 27 ft 11 kts 306°
2026-05-05 22:58 -34.55928 -58.41283 27 ft 11 kts 324°
2026-05-05 22:58 -34.55847 -58.41283 27 ft 13 kts 340°
2026-05-05 22:58 -34.55818 -58.41318 27 ft 4 kts 303°
2026-05-05 22:59 -34.55809 -58.41337 27 ft 3 kts 301°
2026-05-05 22:59 -34.55795 -58.41337 27 ft 2 kts
2026-05-05 22:59 -34.55780 -58.41332 27 ft 2 kts 21°
2026-05-05 22:59 -34.55769 -58.41324 27 ft 2 kts 31°
2026-05-05 23:00 -34.55764 -58.41320 27 ft 0 kts 31°